SBIRS GEO-2 (USA 241)

Last updated on Nov. 16, 2019, 4:19 a.m. UTC

1 39120U 13011A   19318.84689716  .00000133  00000-0  00000-0 0  9999
2 39120   2.3843 335.8771 0002933 254.3181 148.9638  1.00272723 24438
UTC
Height (km)
Latitude
Longitude
Inclination
Orbital Period
UTC large
Height (km)
Speed (km/s)
/
Latitude / Longitude
Inclination (degrees)
Orbital Period (minutes)
Azimuth
Elevation
Range (km)
Doppler Factor
iOS Compass Heading
iOS Angle

Next 30 passes for location: Hong Kong

Rise time Rise Azimuth (degrees) Set time Set Azimuth (degrees) Duration Max altitude (degrees)

No matching passes for this satellites